"Pseudo-MPEC" for C43UDM1

Created 2024 Nov 14 22:31:03 UT using Find_Orb

Click here for an explanation of pseudo-MPECs

 
 Astrometry: 
     C43UDM1*1C2024 11 12.45576210 10 44.130+24 14 36.06   ~BCBV 18.82GVNEOCP703
     C43UDM1 1C2024 11 12.45822110 10 44.886+24 13 59.77   ~BCBV 18.78GVNEOCP703
     C43UDM1 1C2024 11 12.46067510 10 45.894+24 13 23.81   ~BCBV 19.23GVNEOCP703
     C43UDM1 1C2024 11 12.46312510 10 46.744+24 12 47.84   ~BCBV 19.98GVNEOCP703
     C43UDM1 KC2024 11 12.49266410 10 53.936+24 05 10.07   ~BCCH 19.40GVNEOCPI52
     C43UDM1 KC2024 11 12.49363810 10 54.073+24 04 54.77   ~BCCH 19.50GVNEOCPI52
     C43UDM1 KC2024 11 12.49462610 10 54.188+24 04 38.86   ~BCCH 19.24GVNEOCPI52
     C43UDM1 KC2024 11 12.49560610 10 54.311+24 04 23.74   ~BCCH 19.64GVNEOCPI52
     C43UDM1 KC2024 11 12.52617210 10 55.571+23 56 08.66   ~BCD2 19.68GVNEOCPI52
     C43UDM1 KC2024 11 12.52714310 10 55.546+23 55 52.32   ~BCD2 19.46GVNEOCPI52
     C43UDM1 KC2024 11 12.52811610 10 55.517+23 55 36.62   ~BCD2 19.58GVNEOCPI52
     C43UDM1 KC2024 11 12.52908610 10 55.495+23 55 20.10   ~BCD2 19.70GVNEOCPI52
     C43UDM1 KC2024 11 13.45843310 25 00.548+20 46 45.05   ~BDBl 20.59GVNEOCPI52
     C43UDM1 KC2024 11 13.46072210 25 00.124+20 46 35.40   ~BDBl 20.76GVNEOCPI52
     C43UDM1 KC2024 11 13.46302610 24 59.843+20 46 26.90   ~BDBl 20.37GVNEOCPI52
     C43UDM1 1C2024 11 14.51106210 30 24.350+19 20 17.50   ~BEDH       VNEOCPG96
     C43UDM1 1C2024 11 14.51346310 30 23.550+19 20 12.30   ~BEDH       VNEOCPG96
     C43UDM1 1C2024 11 14.51586610 30 22.670+19 20 07.40   ~BEDH       VNEOCPG96
     C43UDM1 1C2024 11 14.51819710 30 22.000+19 20 02.50   ~BEDH 22.09GVNEOCPG96

Station data:
(703) Catalina Sky Survey  (N32.417029 W110.732640)  US/Arizona.  Observer E.
   J. Christensen. 0.68 m Schmidt + 10K CCD.
(G96) Mt. Lemmon Survey  (N32.442729 W110.788720)  US/Arizona.  Observer E.
   J. Christensen. 1.5-m reflector + 10K CCD.
(I52) Steward Observatory, Mt. Lemmon Station  (N32.442570 W110.788920)
   US/Arizona.  Observers T. A. Pruyne, B. M. Africano, E. J. Christensen, G.
   A. Farneth, D. C. Fuls, A. R. Gibbs, A. D. Grauer, H. Gröller, J. A.
   Johnson, R. A. Kowalski, S. M. Larson, G. J. Leonard, D. Rankin, R. L.
   Seaman, F. C. Shelly, K. W. Wierzchoś. 1.0-m prime focus + CCD.

Orbital elements:  C43UDM1
   Perigee 2024 Nov 11.36814 +/- 0.000333 TT =  8:50:07 (JD 2460625.86814)
Epoch 2024 Nov 14.0 TT = JDT 2460628.5                           AutoNEOCP
q 29978.1210 +/- 40.7               (J2000 equator)
H   29.73 G 0.15                    Peri.   23.55844 +/- 0.045
                                    Node   355.42080 +/- 0.0006
e   1.4056720 +/- 0.00112           Incl.   48.77258 +/- 0.0009
From 19 observations 2024 Nov. 12-14; mean residual 0".58
Residuals in arcseconds: 
241112 703  1.7+  .59-    241112 I52  .19-  .23-    241113 I52  .35+  .01+    
241112 703  1.3-  .25-    241112 I52  .02+  .22-    241114 G96  .68+  .02-    
241112 703  .14-  .47+    241112 I52  .08+  .41-    241114 G96  .18+  .27-    
241112 703  .44-  1.2+    241112 I52  .13+  .11+    241114 G96  1.3-  .12-    
241112 I52  .12-  .23-    241112 I52  .32+  .22-    241114 G96  .02+  .04-    
241112 I52  .05-  .22-    241113 I52  1.0+  1.1+    
241112 I52  .22-  .57-    241113 I52  .48-  .07-    

Ephemerides (geocentric):
Date (UTC) HH   RA             Dec           delta  r     elong  mag " sig PA
---- --------  ------------   ------------  ------ ------ -----  --- --------
2024 11 14 23  10 31 13.735   +19 03 24.78  866081 .98819  80.4 22.1 .278 118
2024 11 15 00  10 31 22.085   +19 01 24.33  875091 .98817  80.4 22.1 .265 118
2024 11 15 01  10 31 30.272   +18 59 26.24  884095 .98815  80.4 22.2 .251 117
2024 11 15 02  10 31 38.300   +18 57 30.44  893092 .98814  80.4 22.2 .238 117
2024 11 15 03  10 31 46.175   +18 55 36.87  902083 .98812  80.4 22.2 .225 116
2024 11 15 04  10 31 53.901   +18 53 45.44  911068 .98810  80.4 22.2 .212 115
2024 11 15 05  10 32 01.483   +18 51 56.10  920046 .98808  80.4 22.2 .199 115
2024 11 15 06  10 32 08.925   +18 50 08.79  929019 .98806  80.4 22.3 .185 114
2024 11 15 07  10 32 16.232   +18 48 23.44  937986 .98804  80.5 22.3 .172 113
2024 11 15 08  10 32 23.408   +18 46 40.01  946947 .98802  80.5 22.3 .159 112
2024 11 15 09  10 32 30.456   +18 44 58.43  955903 .98801  80.5 22.3 .146 110
2024 11 15 10  10 32 37.381   +18 43 18.65  964853 .98799  80.5 22.3 .133 108
2024 11 15 11  10 32 44.185   +18 41 40.63  973797 .98797  80.5 22.4 .120 106
2024 11 15 12  10 32 50.873   +18 40 04.31  982736 .98795  80.5 22.4 .108 104
2024 11 15 13  10 32 57.447   +18 38 29.64  991670 .98793  80.5 22.4 .096 101
2024 11 15 14  10 33 03.911   +18 36 56.59  .00669 .98792  80.5 22.4 .084  96
2024 11 15 15  10 33 10.269   +18 35 25.10  .00675 .98790  80.5 22.4 .073  91
2024 11 15 16  10 33 16.522   +18 33 55.14  .00681 .98788  80.5 22.5 .063  84
2024 11 15 17  10 33 22.674   +18 32 26.67  .00687 .98786  80.5 22.5 .054  74
2024 11 15 18  10 33 28.728   +18 30 59.64  .00693 .98785  80.5 22.5 .047  60
2024 11 15 19  10 33 34.685   +18 29 34.02  .00699 .98783  80.5 22.5 .044  44
2024 11 15 20  10 33 40.550   +18 28 09.77  .00705 .98781  80.6 22.5 .044  27
2024 11 15 21  10 33 46.324   +18 26 46.86  .00711 .98779  80.6 22.5 .049  11
2024 11 15 22  10 33 52.009   +18 25 25.25  .00716 .98778  80.6 22.6 .056 179
2024 11 15 23  10 33 57.609   +18 24 04.92  .00722 .98776  80.6 22.6 .065 170
2024 11 16 00  10 34 03.124   +18 22 45.82  .00728 .98774  80.6 22.6 .075 163
2024 11 16 01  10 34 08.558   +18 21 27.93  .00734 .98773  80.6 22.6 .086 158
2024 11 16 02  10 34 13.912   +18 20 11.22  .00740 .98771  80.6 22.6 .098 155
2024 11 16 03  10 34 19.189   +18 18 55.66  .00746 .98769  80.6 22.6 .110 152
2024 11 16 04  10 34 24.390   +18 17 41.22  .00752 .98768  80.7 22.7 .122 149
2024 11 16 05  10 34 29.517   +18 16 27.88  .00758 .98766  80.7 22.7 .134 147
2024 11 16 06  10 34 34.572   +18 15 15.60  .00764 .98765  80.7 22.7 .146 146
2024 11 16 07  10 34 39.556   +18 14 04.37  .00770 .98763  80.7 22.7 .159 144
2024 11 16 08  10 34 44.472   +18 12 54.17  .00776 .98761  80.7 22.7 .171 143
2024 11 16 09  10 34 49.321   +18 11 44.95  .00782 .98760  80.7 22.7 .184 142
2024 11 16 10  10 34 54.105   +18 10 36.72  .00788 .98758  80.7 22.8 .196 141
2024 11 16 11  10 34 58.825   +18 09 29.43  .00793 .98757  80.8 22.8 .208 140
2024 11 16 12  10 35 03.482   +18 08 23.08  .00799 .98755  80.8 22.8 .221 140
2024 11 16 13  10 35 08.079   +18 07 17.63  .00805 .98753  80.8 22.8 .233 139
2024 11 16 14  10 35 12.616   +18 06 13.08  .00811 .98752  80.8 22.8 .246 139
2024 11 16 15  10 35 17.095   +18 05 09.39  .00817 .98750  80.8 22.8 .258 138
2024 11 16 16  10 35 21.517   +18 04 06.56  .00823 .98749  80.9 22.8 .270 138
2024 11 16 17  10 35 25.883   +18 03 04.56  .00829 .98747  80.9 22.9 .283 137
2024 11 16 18  10 35 30.196   +18 02 03.37  .00835 .98746  80.9 22.9 .295 137
2024 11 16 19  10 35 34.454   +18 01 02.98  .00841 .98744  80.9 22.9 .307 137
2024 11 16 20  10 35 38.661   +18 00 03.37  .00846 .98743  80.9 22.9 .319 136
2024 11 16 21  10 35 42.817   +17 59 04.53  .00852 .98741  81.0 22.9 .332 136
2024 11 16 22  10 35 46.924   +17 58 06.43  .00858 .98740  81.0 22.9 .344 136